map of TRU home
TRU - Airport
Location
City:  Trujillo, La Libertad, Perú
Name:Capitán FAP Carlos Martínez de Pinillos International Airport
ICAO:SPRU
IATA:TRU

Details
Type:Airport (Aerodrome, Airfield)
Use:Public/Civil, International (customs port of entry)
Latitude:8°04'54"S (-8.081707)
Longitude:79°06'31"W (-79.108646)
Elevation:128 ft (39 m)
Variation:1.61°W (WMM2015v2 magnetic declination)
-0.17° annual change
Runways:1
Longest:9843 × 148 ft (3000 × 45 m), paved

Time
Time Zone:UTC-5
Local Time:

Weather
METAR:SPRU 041400Z 15008KT 110V170 9999 OVC040 25/22 Q1011 RMK PP000
TAF:SPRU 041100Z 0412/0512 14007KT 9000 BKN045 BKN140 TX28/0419Z TN23/0511Z
FM041600 17012KT 9999 SCT050
FM050000 14008KT 9999 SCT050 BKN100

Related Locations
Nearby:
Farthest:VTSN: 12376 mi / 19917 km
Nakhon Si Thammarat [Cha Ian], 80, TH

Find:

   beyond  
but within

Other Information
Maps:
NOTAMs:
Links:
Sources:

  
  • flag of Perú
  • flag of La Libertad
  

Sectional Chart

Flight Planning
at skyvector.com

Satellite Image

Google Maps Satellite view

 

Copyright © 2004-2019 Karl L. Swartz. All rights reserved.
The Great Circle Mapper name and logo are trademarks of the Great Circle Mapper.
All other trademarks mentioned herein belong to their respective owners.
Please see credits for attibutions and further copyright information.

  Follow gcmap on Facebook Follow gcmap on Twitter GCmap on LinkedIn

hCard Microformat

Geo Microformat